Regional Weather Roundup
Issued by NWS

Home | Current Version | Previous Version | Text Only | Print | Product List | Glossary On
Versions: 1 2 3 4 5 6 7 8 9 10 11 12 13 14 15 16 17 18 19 20 21 22 23 24 25 26 27 28 29 30 31 32 33 34 35 36 37 38 39 40 41 42 43 44 45 46 47 48 49 50
000
ASCA42 TJSJ 300010
RWRPR
PUERTO RICO/U.S. VIRGIN ISLANDS HOURLY WEATHER ROUNDUP
NATIONAL WEATHER SERVICE SAN JUAN PR
800 PM AST SAT AUG 29 2015

PRZ001-004-300100-
PUERTO RICO

CITY           SKY/WX    TMP DP  RH WIND       PRES   REMARKS
SAN JUAN LMM   PTCLDY    82  73  74 E13       30.01R
AGUADILLA      PTCLDY    81  75  83 E14G23    30.00R
$$

PRZ006-007-300100-
U.S. VIRGIN ISLANDS

CITY           SKY/WX    TMP DP  RH WIND       PRES   REMARKS
CHARLOTTE AMA  PTCLDY    84  75  74 E13       30.00R HX  92
CHRISTIANSTED  PTCLDY    82  75  78 NE10      30.00R
$$

HOURLY WEATHER ROUNDUP FOR THE NEWS MEDIA

CITY           SKY/WX    TMP DP  RH WIND       PRES   REMARKS
ORLANDO        RAIN      75  73  93 SW8       30.05R FOG
NEW YORK       MOCLDY    76  63  64 S15       30.12S
NEWARK         PTCLDY    78  60  53 S6        30.10S
CHICAGO        LGT RAIN  68  66  93 N3        30.00S FOG
HARTFORD       CLEAR     70  60  70 SW7       30.10R
BOSTON         MOCLDY    77  54  44 W7        30.09R
DALLAS         MOSUNNY   92  63  38 S12       29.92S HX  93
PHILADELPHIA   PTCLDY    81  61  50 SW14      30.11R
LOS ANGELES    MOSUNNY   80  67  64 W15       29.84F
WASHINGTON DC  MOCLDY    79  63  57 S7        30.09F



USA.gov is the U.S. government's official web portal to all federal, state and local government web resources and services.